Location: Buckeye Ditch
(40.9104°N, 122.9517°W)
Time: 11:58:06
(UTC+00:00)

Transit 2A Rocket - Pass Details

Date: 25 May 2025
Orbit: 590 x 896 km, 66.7° (Epoch: 15 June)

Event Time Altitude Azimuth Distance (km) Brightness Sun altitude
Rises 04:34:03 0° 308° (NW) 3,001 10.4 -10.6°
Reaches altitude 10° 04:37:29 10° 281° (W) 2,148 8.3 -11.1°
Maximum altitude 04:39:42 13° 254° (WSW) 1,980 7.6 -11.4°
Drops below altitude 10° 04:42:00 10° 226° (SW) 2,233 7.5 -11.7°
Sets 04:45:44 0° 200° (SSW) 3,228 8.0 -12.2°
